Regional Weather Roundup
Issued by NWS Midland/Odessa, TX

Skip options and go directly to product.
Home | Oldest Version | Next Version | Current Version | All | Text Only | Save Text | Print | Product List | Glossary On

Skip product version selection by date and time.   
904
ASUS44 KMAF 100310
RWRMAF
MIDLAND AREA WEATHER ROUNDUP
NATIONAL WEATHER SERVICE MIDLAND TX
900 PM CST FRI DEC 09 2016

...IN SOUTHWEST TEXAS AND SOUTHEAST NEW MEXICO...

CITY           SKY/WX    TMP DP  RH WIND       PRES   REMARKS
ALPINE         CLOUDY    41  36  81 SW3       30.36S
ANDREWS        FAIR      34  31  89 S5        30.28S WCI  30
ARTESIA        CLOUDY    28  30 100 SW5       30.25S WCI  23
BIG SPRING     CLEAR     37  32  79 SE10      30.36R WCI  30
CARLSBAD       CLOUDY    31  30  96 CALM      30.24S
DRYDEN           N/A     36  32  85 E5        30.37R WCI  32
FORT STOCKTON  CLEAR     37  34  89 S5        30.27F WCI  33
GUAD PASS      NOT AVBL
HOBBS          CLOUDY    32  32 100 S7        30.26S WCI  26
MARFA          CLOUDY    32  31  96 E3        30.34F
MIDLAND AIRPK  CLOUDY    39  32  73 SE10      30.32R WCI  33
MIDLAND INTL   CLEAR     36  30  79 SE7       30.31R WCI  30
ODESSA         CLOUDY    38  30  73 S10       30.30R WCI  31
PECOS          CLEAR     37  34  90 CALM      30.28S
PRESIDIO       FAIR      40  34  78 N6        30.34S WCI  36
SEMINOLE       CLOUDY    31  30  94 CALM      30.30R
SNYDER         CLEAR     33  27  80 SE8       30.35R WCI  25
WINK           CLOUDY    36  33  89 SE6       30.27S WCI  31
$$
...OTHER STATIONS IN TEXAS...

CITY           SKY/WX    TMP DP  RH WIND       PRES   REMARKS
ABILENE        CLEAR     35  23  61 SE12      30.39S WCI  27
AMARILLO       CLOUDY    32  29  88 S15       30.23R WCI  22
AUSTIN         MOCLDY    43  24  47 VRB3      30.50F
BROWNSVILLE    CLOUDY    45  35  68 NW10      30.46S WCI  40
CORPUS CHRISTI CLOUDY    48  34  58 NE7       30.50R
DALLAS FTW     PTCLDY    34  20  56 E3        30.50S
DEL RIO        CLOUDY    41  31  67 SE7       30.45S WCI  36
EL PASO        PTCLDY    41  31  67 N5        30.29S WCI  38
HOUSTON INT    CLOUDY    45  30  55 N9        30.52S
LUBBOCK        CLOUDY    31  26  82 SE9       30.29R WCI  23
SAN ANGELO     CLEAR     36  27  69 SE6       30.38S WCI  31
SAN ANTONIO    PTCLDY    40  24  53 CALM      30.50S
WACO           CLOUDY    39  27  62 SE5       30.52R WCI  36
WICHITA FALLS  NOT AVBL
$$
...OTHER LOCATIONS IN NEW MEXICO...

CITY           SKY/WX    TMP DP  RH WIND       PRES   REMARKS
ALAMAGORDO     NOT AVBL
ALBUQUERQUE    CLOUDY    36  26  67 SE7       30.30S WCI  30
CANNON AFB     CLOUDY    29  29 100 SW5       30.20S WCI  23
CLOVIS         CLOUDY    34  27  75 SW6       30.21R WCI  29
HOLLOMAN AFB   CLOUDY    32  22  67 NE7       30.34S WCI  26
ROSWELL        CLOUDY    28  25  88 SW7       30.23F WCI  21
RUIDOSO        CLOUDY    37  25  60 W7        30.31S WCI  32
SANTA FE       CLOUDY    29  21  72 N3        30.28S
TRUTH OR CONSE PTCLDY    39  27  62 CALM      30.28S
TUCUMCARI      CLOUDY    36  27  69 SW5       30.14S WCI  32
$$

  • National Weather Service
  • Southern Region Headquarters
  • 819 Taylor Street, Room 10A06
  • Fort Worth, TX 76102
  • Page Author: NWS Fort Worth
  • Web Master: SR-SRH.Webmaster@noaa.gov
  •  
  • Page last modified: 30-Sep-2016 6:36 PM UTC
USA.gov is the U.S. government's official web portal to all federal, state and local government web resources and services.